EW8041 Weather Reports


Display with metric or nautical units.
time (UTC)temp
F
wind
direction
speed
MPH
gust
MPH
rain 1hr
in
rain 24hr
in
rain mn
in
humidity
%
barometer
mb
20260904044519 81 297 0.0 1.0 0.00 0.00 0.00 80 1015.4
20260904043535 81 297 0.0 1.0 0.00 0.00 0.00 79 1015.5
20260904042551 81 297 0.0 1.0 0.00 0.00 0.00 79 1015.5
20260904041547 81 297 0.0 1.0 0.00 0.00 0.00 78 1015.5
20260904040543 81 297 0.0 1.0 0.00 0.00 0.00 78 1015.6
20260904035519 82 0.0 0.0 0.00 0.00 0.00 77 1015.6
20260904034535 82 297 0.0 1.0 0.00 0.00 0.00 76 1015.7
20260904033551 83 297 0.0 1.0 0.00 0.00 0.00 76 1015.9
20260904032527 83 297 0.0 1.0 0.00 0.00 0.00 76 1015.8
20260904031543 83 297 0.0 1.0 0.00 0.00 0.00 75 1016.0
20260904030518 83 0.0 0.0 0.00 0.00 0.00 75 1015.9
20260904025535 84 297 0.0 1.0 0.00 0.00 0.00 74 1015.9
20260904024551 84 297 0.0 1.0 0.00 0.00 0.00 73 1015.9
20260904023527 84 297 1.0 1.0 0.00 0.00 0.00 73 1015.9
20260904022523 85 297 0.0 1.0 0.00 0.00 0.00 72 1015.9
20260904021519 85 297 0.0 1.0 0.00 0.00 0.00 71 1015.7
20260904020535 86 297 0.0 1.0 0.00 0.00 0.00 70 1015.7
20260904015530 86 0.0 0.0 0.00 0.00 0.00 69 1015.5
20260904014526 87 297 0.0 1.0 0.00 0.00 0.00 68 1015.3
20260904013521 87 0.0 0.0 0.00 0.00 0.00 67 1015.3
20260904012517 88 0.0 0.0 0.00 0.00 0.00 67 1015.2
20260904011533 88 297 0.0 1.0 0.00 0.00 0.00 67 1015.2
20260904010549 88 0.0 0.0 0.00 0.00 0.00 67 1015.0
20260904005525 88 297 1.0 1.0 0.00 0.00 0.00 66 1014.9
20260904004521 89 297 0.0 1.0 0.00 0.00 0.00 65 1014.9
20260904003517 89 297 0.0 1.0 0.00 0.00 0.00 65 1014.7
20260904002533 90 297 1.0 2.0 0.00 0.00 0.00 65 1014.5
20260904001529 91 297 1.0 1.0 0.00 0.00 0.00 63 1014.5
20260904000526 92 297 1.0 1.0 0.00 0.00 0.00 61 1014.4
20260903235521 93 297 0.0 1.0 0.00 0.00 0.00 59 1014.4
20260903234517 93 297 1.0 3.0 0.00 0.00 0.00 59 1014.4
20260903233532 94 297 0.0 1.0 0.00 0.00 0.00 59 1014.3
20260903232528 94 297 0.0 1.0 0.00 0.00 0.00 57 1014.3
20260903231523 95 297 1.0 2.0 0.00 0.00 0.00 56 1014.4
20260903230519 95 297 1.0 2.0 0.00 0.00 0.00 56 1014.3
20260903225535 96 297 0.0 1.0 0.00 0.00 0.00 58 1014.3
20260903224531 96 297 1.0 2.0 0.00 0.00 0.00 58 1014.3
20260903223527 97 297 1.0 3.0 0.00 0.00 0.00 57 1014.1
20260903222603 96 297 1.0 2.0 0.00 0.00 0.00 58 1014.1
20260903221518 96 297 0.0 1.0 0.00 0.00 0.00 59 1014.3
20260903220535 96 297 0.0 2.0 0.00 0.00 0.00 59 1014.1
20260903215530 95 297 1.0 2.0 0.00 0.00 0.00 60 1014.0
20260903214526 95 297 1.0 2.0 0.00 0.00 0.00 60 1013.9
20260903213522 94 297 0.0 1.0 0.00 0.00 0.00 59 1014.2
20260903212518 94 297 1.0 1.0 0.00 0.00 0.00 57 1014.2
20260903211534 96 297 2.0 4.0 0.00 0.00 0.00 57 1014.3
20260903210530 98 209 1.0 3.0 0.00 0.00 0.00 54 1014.2
20260903205526 100 201 1.0 3.0 0.00 0.00 0.00 54 1014.4
20260903204522 100 201 1.0 2.0 0.00 0.00 0.00 53 1014.4
20260903203518 99 201 1.0 2.0 0.00 0.00 0.00 56 1014.4
20260903202534 98 90 1.0 4.0 0.00 0.00 0.00 57 1014.6
20260903201550 97 35 1.0 3.0 0.00 0.00 0.00 57 1014.9
20260903200546 96 35 1.0 2.0 0.00 0.00 0.00 56 1015.0
20260903195522 97 35 1.0 3.0 0.00 0.00 0.00 56 1015.0
20260903194518 99 35 1.0 2.0 0.00 0.00 0.00 55 1015.2
20260903193534 100 35 1.0 3.0 0.00 0.00 0.00 55 1015.1
20260903192530 100 35 1.0 2.0 0.00 0.00 0.00 56 1015.3
20260903191526 98 35 1.0 2.0 0.00 0.00 0.00 57 1015.5
20260903190522 98 35 2.0 3.0 0.00 0.00 0.00 57 1015.6
20260903185518 98 43 1.0 3.0 0.00 0.00 0.00 60 1015.8
20260903184534 97 55 1.0 3.0 0.00 0.00 0.00 61 1015.9
20260903183531 96 55 1.0 4.0 0.00 0.00 0.00 62 1015.9
20260903182546 97 96 2.0 6.0 0.00 0.00 0.00 62 1016.1
20260903181523 97 73 2.0 6.0 0.00 0.00 0.00 62 1016.1
20260903180518 98 75 2.0 10.0 0.00 0.00 0.00 61 1016.4
20260903175555 98 33 1.0 3.0 0.00 0.00 0.00 62 1016.4
20260903174531 98 52 2.0 7.0 0.00 0.00 0.00 63 1016.5
20260903173527 96 28 1.0 4.0 0.00 0.00 0.00 62 1016.5
20260903172523 97 31 1.0 3.0 0.00 0.00 0.00 64 1016.7
20260903171539 96 31 1.0 2.0 0.00 0.00 0.00 63 1017.0
20260903170535 96 31 1.0 2.0 0.00 0.00 0.00 64 1017.1
20260903165532 95 31 1.0 3.0 0.00 0.00 0.00 66 1017.3
20260903164527 96 31 1.0 2.0 0.00 0.00 0.00 67 1017.4
20260903163523 96 31 1.0 3.0 0.00 0.00 0.00 67 1017.3
20260903162519 95 31 1.0 3.0 0.00 0.00 0.00 71 1017.5
20260903161515 94 31 1.0 2.0 0.00 0.00 0.00 73 1017.5
20260903160532 93 31 1.0 3.0 0.00 0.00 0.00 73 1017.6
20260903155528 93 31 1.0 2.0 0.00 0.00 0.00 73 1017.7
20260903154524 93 31 0.0 1.0 0.00 0.00 0.00 76 1017.8
20260903153520 92 31 0.0 1.0 0.00 0.00 0.00 77 1017.8
20260903152516 91 31 1.0 2.0 0.00 0.00 0.00 77 1017.8
20260903151532 91 31 1.0 2.0 0.00 0.00 0.00 78 1017.6
20260903150528 90 31 1.0 2.0 0.00 0.00 0.00 81 1017.6
20260903145524 89 31 1.0 2.0 0.00 0.00 0.00 82 1017.6
20260903144540 88 31 0.0 1.0 0.00 0.00 0.00 86 1017.6
20260903143516 87 31 0.0 2.0 0.00 0.00 0.00 86 1017.6
20260903142532 87 31 1.0 2.0 0.00 0.00 0.00 87 1017.6
20260903141528 86 31 1.0 4.0 0.00 0.00 0.00 89 1017.6
20260903140524 85 31 1.0 1.0 0.00 0.00 0.00 91 1017.8
20260903135520 84 31 0.0 1.0 0.00 0.00 0.00 91 1017.7
20260903134516 83 31 0.0 1.0 0.00 0.00 0.00 92 1017.6
20260903133532 81 31 0.0 1.0 0.00 0.00 0.00 93 1017.6
20260903132528 80 31 1.0 1.0 0.00 0.00 0.00 93 1017.6
20260903131524 79 31 0.0 1.0 0.00 0.00 0.00 94 1017.6
20260903130520 79 31 0.0 1.0 0.00 0.00 0.00 94 1017.6
20260903125516 78 0.0 0.0 0.00 0.00 0.00 94 1017.7
20260903124552 77 31 0.0 1.0 0.00 0.00 0.00 94 1017.8
20260903123528 76 0.0 0.0 0.00 0.00 0.00 94 1017.7
20260903122524 75 0.0 0.0 0.00 0.00 0.00 94 1017.4
20260903121521 75 0.0 0.0 0.00 0.00 0.00 94 1017.5
20260903120517 75 0.0 0.0 0.00 0.00 0.00 94 1017.4
20260903115532 74 31 0.0 1.0 0.00 0.00 0.00 93 1017.5
20260903114528 74 0.0 0.0 0.00 0.00 0.00 93 1017.4
20260903113544 74 0.0 0.0 0.00 0.00 0.00 93 1017.2
20260903112541 74 0.0 0.0 0.00 0.00 0.00 93 1017.2
20260903111516 75 0.0 0.0 0.00 0.00 0.00 93 1017.0
20260903110533 75 31 0.0 1.0 0.00 0.00 0.00 93 1017.0
20260903105529 75 0.0 0.0 0.00 0.00 0.00 93 1016.9
20260903104525 75 31 0.0 1.0 0.00 0.00 0.00 92 1016.8
20260903103520 75 31 0.0 1.0 0.00 0.00 0.00 92 1016.9
20260903102516 75 0.0 0.0 0.00 0.00 0.00 92 1016.7
20260903101533 75 0.0 0.0 0.00 0.00 0.00 92 1016.8
20260903100528 75 0.0 0.0 0.00 0.00 0.00 91 1016.6
20260903095545 75 0.0 0.0 0.00 0.00 0.00 91 1016.5
20260903094521 75 0.0 0.0 0.00 0.00 0.00 91 1016.5
20260903093537 75 0.0 0.0 0.00 0.00 0.00 91 1016.6
20260903092533 75 0.0 0.0 0.00 0.00 0.00 90 1016.5
20260903091529 75 0.0 0.0 0.00 0.00 0.00 90 1016.5
20260903090525 75 0.0 0.0 0.00 0.00 0.00 90 1016.5
20260903085521 75 0.0 0.0 0.00 0.00 0.00 90 1016.5
20260903084517 76 0.0 0.0 0.00 0.00 0.00 90 1016.3
20260903083533 76 0.0 0.0 0.00 0.00 0.00 90 1016.4
20260903082529 76 0.0 0.0 0.00 0.00 0.00 89 1016.4
20260903081525 76 0.0 0.0 0.00 0.00 0.00 89 1016.4
20260903080521 76 0.0 0.0 0.00 0.00 0.00 89 1016.5
20260903075517 76 0.0 0.0 0.00 0.00 0.00 89 1016.5
20260903074534 76 0.0 0.0 0.00 0.00 0.00 88 1016.4
20260903073549 77 0.0 0.0 0.00 0.00 0.00 88 1016.4
20260903072526 77 0.0 0.0 0.00 0.00 0.00 88 1016.5
20260903071522 77 0.0 0.0 0.00 0.00 0.00 88 1016.6
20260903070518 77 0.0 0.0 0.00 0.00 0.00 87 1016.5
20260903065534 77 0.0 0.0 0.00 0.00 0.00 87 1016.4
20260903064529 78 0.0 0.0 0.00 0.00 0.00 87 1016.6
20260903063525 78 0.0 0.0 0.00 0.00 0.00 86 1016.6
20260903062541 78 0.0 0.0 0.00 0.00 0.00 86 1016.7
20260903061517 78 0.0 0.0 0.00 0.00 0.00 86 1016.7
20260903060533 78 0.0 0.0 0.00 0.00 0.00 85 1016.8
20260903055529 78 31 0.0 1.0 0.00 0.00 0.00 85 1016.8
20260903054544 78 0.0 0.0 0.00 0.00 0.00 84 1016.8
20260903053520 78 31 0.0 1.0 0.00 0.00 0.00 84 1016.6
20260903052517 79 0.0 0.0 0.00 0.00 0.00 84 1016.9
20260903051532 79 0.0 0.0 0.00 0.00 0.00 83 1016.8
20260903050529 79 31 0.0 1.0 0.00 0.00 0.00 83 1016.8
20260903045525 79 31 0.0 1.0 0.00 0.00 0.00 82 1016.8